IZ3ZOD-13 Weather Reports


Display with metric or nautical units.
time (UTC)temp
F
wind
direction
speed
MPH
gust
MPH
rain 1hr
in
rain 24hr
in
rain mn
in
humidity
%
barometer
mb
20260905095816 85 249 1.0 3.0 0.00 0.00 0.00 63 1017.5
20260905095416 85 241 1.0 3.0 0.00 0.00 0.00 63 1017.4
20260905094803 87 281 1.0 2.0 0.00 0.00 0.00 60 1017.4
20260905094403 88 286 1.0 4.0 0.00 0.00 0.00 58 1017.6
20260905094003 88 283 1.0 4.0 0.00 0.00 0.00 59 1017.5
20260905093603 87 283 1.0 4.0 0.00 0.00 0.00 61 1017.4
20260905093413 87 291 1.0 3.0 0.00 0.00 0.00 63 1017.5
20260905093017 87 308 1.0 4.0 0.00 0.00 0.00 62 1017.5
20260905092403 86 354 2.0 4.0 0.00 0.00 0.00 63 1017.5
20260905092003 87 347 2.0 4.0 0.00 0.00 0.00 64 1017.4
20260905091603 87 315 2.0 4.0 0.00 0.00 0.00 62 1017.5
20260905091203 87 294 2.0 4.0 0.00 0.00 0.00 63 1017.4
20260905091014 87 290 2.0 4.0 0.00 0.00 0.00 64 1017.5
20260905090613 86 282 2.0 6.0 0.00 0.00 0.00 66 1017.5
20260905090003 85 315 2.0 6.0 0.00 0.00 0.00 67 1017.4
20260905085603 83 351 1.0 4.0 0.00 0.00 0.00 68 1017.3
20260905085203 83 14 1.0 3.0 0.00 0.00 0.00 70 1017.4
20260905084803 83 16 2.0 4.0 0.00 0.00 0.00 70 1017.1
20260905084403 84 13 2.0 4.0 0.00 0.00 0.00 68 1017.1
20260905084003 85 1 2.0 4.0 0.00 0.00 0.00 67 1017.1
20260905083814 85 350 1.0 3.0 0.00 0.00 0.00 67 1017.0
20260905083413 85 356 1.0 3.0 0.00 0.00 0.00 66 1017.1
20260905082803 83 1 2.0 6.0 0.00 0.00 0.00 68 1017.2
20260905082403 83 349 2.0 6.0 0.00 0.00 0.00 68 1017.0
20260905082003 84 346 1.0 3.0 0.00 0.00 0.00 67 1017.3
20260905081603 83 349 1.0 3.0 0.00 0.00 0.00 67 1017.0
20260905081415 82 1 1.0 2.0 0.00 0.00 0.00 68 1017.0
20260905080803 82 11 2.0 6.0 0.00 0.00 0.00 68 1016.7
20260905080614 81 7 2.0 6.0 0.00 0.00 0.00 70 1016.9
20260905080003 82 349 2.0 6.0 0.00 0.00 0.00 68 1016.8
20260905075603 82 352 1.0 3.0 0.00 0.00 0.00 69 1016.8
20260905075203 82 326 1.0 2.0 0.00 0.00 0.00 69 1016.8
20260905074803 81 342 1.0 3.0 0.00 0.00 0.00 70 1016.9
20260905074403 81 322 1.0 3.0 0.00 0.00 0.00 71 1016.9
20260905074215 81 316 1.0 3.0 0.00 0.00 0.00 69 1016.7
20260905073603 80 304 1.0 3.0 0.00 0.00 0.00 70 1016.7
20260905073203 80 307 1.0 3.0 0.00 0.00 0.00 71 1016.6
20260905072803 79 305 1.0 3.0 0.00 0.00 0.00 72 1016.6
20260905072403 79 306 1.0 3.0 0.00 0.00 0.00 73 1016.7
20260905072217 79 309 1.0 3.0 0.00 0.00 0.00 73 1016.6
20260905071816 78 304 1.0 2.0 0.00 0.00 0.00 73 1016.6
20260905071203 77 286 2.0 6.0 0.00 0.00 0.00 75 1016.7
20260905070803 77 280 2.0 6.0 0.00 0.00 0.00 75 1016.6
20260905070614 77 281 2.0 3.0 0.00 0.00 0.00 75 1016.7
20260905070004 77 293 2.0 6.0 0.00 0.00 0.00 76 1016.7
20260905065603 77 300 2.0 6.0 0.00 0.00 0.00 75 1016.6
20260905065203 76 298 1.0 3.0 0.00 0.00 0.00 77 1016.7
20260905064803 76 285 1.0 3.0 0.00 0.00 0.00 77 1016.4
20260905064403 76 278 1.0 3.0 0.00 0.00 0.00 77 1016.5
20260905064003 76 276 1.0 3.0 0.00 0.00 0.00 78 1016.2
20260905063603 76 275 1.0 3.0 0.00 0.00 0.00 78 1016.3
20260905063203 75 279 1.0 3.0 0.00 0.00 0.00 79 1016.3
20260905062803 75 279 1.0 3.0 0.00 0.00 0.00 78 1016.4
20260905062403 74 271 1.0 3.0 0.00 0.00 0.00 79 1016.2
20260905062212 74 268 1.0 2.0 0.00 0.00 0.00 80 1016.1
20260905061604 74 273 1.0 4.0 0.00 0.00 0.00 81 1016.1
20260905061203 73 288 1.0 4.0 0.00 0.00 0.00 82 1016.1
20260905060803 73 300 1.0 3.0 0.00 0.00 0.00 81 1016.2
20260905060403 73 304 1.0 3.0 0.00 0.00 0.00 82 1016.4
20260905060004 72 291 1.0 3.0 0.00 0.00 0.00 83 1016.2
20260905055814 72 287 1.0 3.0 0.00 0.00 0.00 83 1016.3
20260905055203 72 283 1.0 3.0 0.00 0.00 0.00 84 1016.3
20260905054803 72 280 1.0 2.0 0.00 0.00 0.00 85 1016.2
20260905054617 72 280 0.0 2.0 0.00 0.00 0.00 84 1016.2
20260905054003 71 287 0.0 2.0 0.00 0.00 0.00 85 1015.9
20260905053603 71 0 0.0 0.0 0.00 0.00 0.00 86 1016.0
20260905053203 70 0 0.0 0.0 0.00 0.00 0.00 88 1015.9
20260905052803 69 0 0.0 0.0 0.00 0.00 0.00 89 1015.9
20260905052403 69 0 0.0 0.0 0.00 0.00 0.00 90 1016.1
20260905052003 69 0 0.0 0.0 0.00 0.00 0.00 90 1015.9
20260905051813 68 0 0.0 0.0 0.00 0.00 0.00 90 1015.9
20260905051203 68 0 0.0 0.0 0.00 0.00 0.00 90 1015.7
20260905050803 68 0 0.0 0.0 0.00 0.00 0.00 90 1015.7
20260905050403 68 0 0.0 0.0 0.00 0.00 0.00 90 1015.5
20260905050004 68 0 0.0 0.0 0.00 0.00 0.00 90 1015.7
20260905045603 68 0 0.0 0.0 0.00 0.00 0.00 90 1015.8
20260905045203 68 0 0.0 0.0 0.00 0.00 0.00 90 1015.7
20260905044803 68 0 0.0 0.0 0.00 0.00 0.00 90 1015.6
20260905044403 68 0 0.0 0.0 0.00 0.00 0.00 90 1015.9
20260905044003 68 0 0.0 0.0 0.00 0.00 0.00 90 1015.8
20260905043816 68 0 0.0 0.0 0.00 0.00 0.00 90 1015.7
20260905043203 68 0 0.0 0.0 0.00 0.00 0.00 90 1015.7
20260905042803 68 0 0.0 0.0 0.00 0.00 0.00 90 1015.6
20260905042403 68 283 0.0 0.0 0.00 0.00 0.00 90 1015.8
20260905042003 68 307 0.0 3.0 0.00 0.00 0.00 90 1015.7
20260905041603 68 307 0.0 3.0 0.00 0.00 0.00 90 1015.9
20260905041203 68 0 0.0 0.0 0.00 0.00 0.00 90 1015.9
20260905040803 68 0 0.0 0.0 0.00 0.00 0.00 90 1015.7
20260905040403 68 0 0.0 0.0 0.00 0.00 0.00 90 1016.0
20260905040003 68 0 0.0 0.0 0.00 0.00 0.00 90 1016.0
20260905035603 68 0 0.0 0.0 0.00 0.00 0.00 89 1015.8
20260905035415 68 0 0.0 0.0 0.00 0.00 0.00 89 1016.0
20260905035014 68 0 0.0 0.0 0.00 0.00 0.00 89 1015.9
20260905034404 68 0 0.0 0.0 0.00 0.00 0.00 89 1015.9
20260905034003 69 0 0.0 0.0 0.00 0.00 0.00 88 1015.9
20260905033603 69 0 0.0 0.0 0.00 0.00 0.00 89 1015.8
20260905033203 69 0 0.0 0.0 0.00 0.00 0.00 88 1015.8
20260905032803 69 0 0.0 0.0 0.00 0.00 0.00 88 1016.1
20260905032403 69 0 0.0 0.0 0.00 0.00 0.00 88 1016.2
20260905032003 69 328 0.0 1.0 0.00 0.00 0.00 88 1016.0
20260905031814 69 328 0.0 3.0 0.00 0.00 0.00 88 1016.0
20260905031413 69 328 0.0 3.0 0.00 0.00 0.00 88 1016.0
20260905030803 69 291 0.0 0.0 0.00 0.00 0.00 88 1016.0
20260905030403 69 281 0.0 2.0 0.00 0.00 0.00 88 1016.0
20260905030003 69 279 1.0 3.0 0.00 0.00 0.00 88 1015.9
20260905025603 68 277 0.0 3.0 0.00 0.00 0.00 88 1015.9
20260905025203 68 281 0.0 3.0 0.00 0.00 0.00 89 1016.0
20260905025015 68 0 0.0 0.0 0.00 0.00 0.00 89 1016.0
20260905024403 68 278 0.0 0.0 0.00 0.00 0.00 89 1015.8
20260905024003 68 277 0.0 1.0 0.00 0.00 0.00 90 1015.8
20260905023603 68 277 0.0 1.0 0.00 0.00 0.00 91 1015.8
20260905023417 68 278 0.0 1.0 0.00 0.00 0.00 91 1015.8
20260905022803 68 0 0.0 0.0 0.00 0.00 0.00 91 1015.8
20260905022403 68 0 0.0 0.0 0.00 0.00 0.00 91 1015.7
20260905022003 67 0 0.0 0.0 0.00 0.00 0.00 91 1015.8
20260905021603 68 0 0.0 0.0 0.00 0.00 0.00 91 1015.5
20260905021203 68 0 0.0 0.0 0.00 0.00 0.00 91 1015.6
20260905021013 68 0 0.0 0.0 0.00 0.00 0.00 91 1015.8
20260905020613 68 0 0.0 0.0 0.00 0.00 0.00 90 1015.5
20260905020003 68 0 0.0 0.0 0.00 0.00 0.00 90 1015.9
20260905015603 68 0 0.0 0.0 0.00 0.00 0.00 90 1015.9
20260905015203 68 0 0.0 0.0 0.00 0.00 0.00 90 1015.9
20260905014803 68 0 0.0 0.0 0.00 0.00 0.00 90 1015.9
20260905014403 68 0 0.0 0.0 0.00 0.00 0.00 90 1015.7
20260905014003 68 0 0.0 0.0 0.00 0.00 0.00 90 1015.8
20260905013603 68 0 0.0 0.0 0.00 0.00 0.00 90 1015.9
20260905013203 68 0 0.0 0.0 0.00 0.00 0.00 90 1015.9
20260905012803 68 0 0.0 0.0 0.00 0.00 0.00 90 1016.0
20260905012403 68 0 0.0 0.0 0.00 0.00 0.00 90 1015.9
20260905012003 68 0 0.0 0.0 0.00 0.00 0.00 90 1015.8
20260905011815 68 0 0.0 0.0 0.00 0.00 0.00 90 1015.8
20260905011203 68 0 0.0 0.0 0.00 0.00 0.00 89 1016.0
20260905010803 68 0 0.0 0.0 0.00 0.00 0.00 90 1016.1
20260905010403 68 0 0.0 0.0 0.00 0.00 0.00 90 1016.1
20260905010004 68 0 0.0 0.0 0.00 0.00 0.00 89 1016.0
20260905005603 69 0 0.0 0.0 0.00 0.00 0.00 89 1016.1
20260905005203 69 0 0.0 0.0 0.00 0.00 0.00 89 1016.0
20260905004803 69 0 0.0 0.0 0.00 0.00 0.00 89 1015.9
20260905004403 69 0 0.0 0.0 0.00 0.00 0.00 89 1016.1
20260905004003 69 0 0.0 0.0 0.00 0.00 0.00 89 1016.2
20260905003814 69 0 0.0 0.0 0.00 0.00 0.00 89 1016.1
20260905003203 69 0 0.0 0.0 0.00 0.00 0.00 89 1016.2
20260905003013 69 0 0.0 0.0 0.00 0.00 0.00 89 1016.1
20260905002617 69 0 0.0 0.0 0.00 0.00 0.00 89 1016.1
20260905002003 69 278 0.0 1.0 0.00 0.00 0.00 89 1016.1
20260905001603 69 278 0.0 1.0 0.00 0.00 0.00 89 1016.2
20260905001203 69 278 0.0 1.0 0.00 0.00 0.00 89 1016.3
20260905000803 69 0 0.0 0.0 0.00 0.00 0.00 88 1016.5
20260905000403 69 0 0.0 0.0 0.00 0.00 0.00 88 1016.5
20260905000003 70 277 0.0 1.0 0.00 0.00 0.00 87 1016.5
20260904235603 70 277 0.0 1.0 0.00 0.00 0.00 88 1016.5
20260904235203 69 0 0.0 0.0 0.00 0.00 0.00 88 1016.5
20260904235016 69 0 0.0 0.0 0.00 0.00 0.00 87 1016.6
20260904234403 70 0 0.0 0.0 0.00 0.00 0.00 88 1016.5
20260904234003 70 0 0.0 0.0 0.00 0.00 0.00 88 1016.7
20260904233814 70 0 0.0 0.0 0.00 0.00 0.00 88 1016.7
20260904233203 70 0 0.0 0.0 0.00 0.00 0.00 87 1016.8
20260904232803 70 0 0.0 0.0 0.00 0.00 0.00 87 1016.7
20260904232403 70 277 0.0 1.0 0.00 0.00 0.00 87 1016.7
20260904232003 70 276 0.0 1.0 0.00 0.00 0.00 87 1016.9
20260904231603 70 276 0.0 1.0 0.00 0.00 0.00 86 1016.9
20260904231203 70 0 0.0 0.0 0.00 0.00 0.00 86 1016.8
20260904230803 70 277 0.0 2.0 0.00 0.00 0.00 87 1016.9
20260904230614 70 277 0.0 2.0 0.00 0.00 0.00 87 1017.0
20260904230214 70 277 0.0 2.0 0.00 0.00 0.00 87 1016.8
20260904225603 71 0 0.0 0.0 0.00 0.00 0.00 85 1016.9
20260904225203 71 277 0.0 1.0 0.00 0.00 0.00 85 1016.9
20260904224803 71 277 0.0 1.0 0.00 0.00 0.00 85 1017.0
20260904224616 71 277 0.0 1.0 0.00 0.00 0.00 85 1017.0
20260904224003 71 0 0.0 0.0 0.00 0.00 0.00 85 1016.9
20260904223603 71 276 0.0 0.0 0.00 0.00 0.00 85 1017.0
20260904223414 71 276 0.0 1.0 0.00 0.00 0.00 85 1017.0
20260904223014 71 295 0.0 2.0 0.00 0.00 0.00 84 1017.0
20260904222403 72 339 0.0 2.0 0.00 0.00 0.00 83 1016.9
20260904222003 72 0 0.0 0.0 0.00 0.00 0.00 82 1017.1
20260904221603 72 0 0.0 0.0 0.00 0.00 0.00 82 1017.0
20260904221203 72 12 0.0 0.0 0.00 0.00 0.00 82 1017.0
20260904220803 72 12 0.0 1.0 0.00 0.00 0.00 81 1017.0
20260904220403 72 12 0.0 1.0 0.00 0.00 0.00 81 1017.1
20260904220004 73 13 1.0 2.0 0.00 0.00 0.00 80 1016.9
20260904215603 73 13 1.0 2.0 0.00 0.00 0.00 80 1016.9
20260904215203 72 13 1.0 2.0 0.00 0.00 0.00 81 1017.1
20260904214803 72 12 1.0 2.0 0.00 0.00 0.00 81 1017.0
20260904214403 72 12 0.0 1.0 0.00 0.00 0.00 82 1017.0
20260904214216 72 12 0.0 1.0 0.00 0.00 0.00 82 1017.0
20260904213603 72 352 0.0 1.0 0.00 0.00 0.00 82 1017.1
20260904213203 72 352 0.0 1.0 0.00 0.00 0.00 82 1017.1
20260904213014 72 352 0.0 1.0 0.00 0.00 0.00 82 1017.0
20260904212403 72 194 0.0 2.0 0.00 0.00 0.00 82 1017.2
20260904212003 72 194 0.0 2.0 0.00 0.00 0.00 82 1017.1
20260904211813 72 193 0.0 2.0 0.00 0.00 0.00 81 1017.3
20260904211203 72 0 0.0 0.0 0.00 0.00 0.00 82 1017.2
20260904210803 72 0 0.0 0.0 0.00 0.00 0.00 83 1017.2
20260904210616 72 0 0.0 0.0 0.00 0.00 0.00 82 1017.3
20260904210215 72 0 0.0 0.0 0.00 0.00 0.00 82 1017.1
20260904205603 72 0 0.0 0.0 0.00 0.00 0.00 82 1017.1
20260904205203 72 0 0.0 0.0 0.00 0.00 0.00 81 1017.2
20260904204803 73 0 0.0 0.0 0.00 0.00 0.00 80 1017.1
20260904204403 73 0 0.0 0.0 0.00 0.00 0.00 80 1017.1
20260904204217 73 0 0.0 0.0 0.00 0.00 0.00 80 1017.1
20260904203603 73 0 0.0 0.0 0.00 0.00 0.00 79 1017.2
20260904203203 73 0 0.0 0.0 0.00 0.00 0.00 79 1017.1
20260904202803 73 0 0.0 0.0 0.00 0.00 0.00 79 1017.2
20260904202403 73 0 0.0 0.0 0.00 0.00 0.00 79 1017.3
20260904202214 73 0 0.0 0.0 0.00 0.00 0.00 79 1017.3
20260904201603 73 0 0.0 0.0 0.00 0.00 0.00 78 1017.3
20260904201204 73 0 0.0 0.0 0.00 0.00 0.00 78 1017.3
20260904201017 73 0 0.0 0.0 0.00 0.00 0.00 78 1017.2
20260904200616 74 0 0.0 0.0 0.00 0.00 0.00 78 1017.3
20260904200003 74 0 0.0 0.0 0.00 0.00 0.00 77 1017.4
20260904195603 74 0 0.0 0.0 0.00 0.00 0.00 77 1017.4
20260904195203 75 0 0.0 0.0 0.00 0.00 0.00 76 1017.2
20260904194803 75 0 0.0 0.0 0.00 0.00 0.00 76 1017.2
20260904194403 75 0 0.0 0.0 0.00 0.00 0.00 75 1017.3
20260904194213 75 0 0.0 0.0 0.00 0.00 0.00 75 1017.3
20260904193603 75 0 0.0 0.0 0.00 0.00 0.00 74 1017.3
20260904193203 75 0 0.0 0.0 0.00 0.00 0.00 75 1017.3
20260904192803 76 0 0.0 0.0 0.00 0.00 0.00 74 1017.2
20260904192615 76 0 0.0 0.0 0.00 0.00 0.00 73 1017.3
20260904192003 76 191 0.0 0.0 0.00 0.00 0.00 72 1017.3
20260904191603 76 191 0.0 1.0 0.00 0.00 0.00 72 1017.3
20260904191203 76 192 1.0 2.0 0.00 0.00 0.00 72 1017.3
20260904190803 76 193 1.0 2.0 0.00 0.00 0.00 72 1017.3
20260904190617 76 192 1.0 2.0 0.00 0.00 0.00 72 1017.2
20260904190003 76 168 1.0 2.0 0.00 0.00 0.00 73 1017.4
20260904185816 76 161 1.0 2.0 0.00 0.00 0.00 73 1017.4
20260904185203 77 119 0.0 2.0 0.00 0.00 0.00 73 1017.4
20260904184803 77 0 0.0 0.0 0.00 0.00 0.00 73 1017.4
20260904184403 77 0 0.0 0.0 0.00 0.00 0.00 72 1017.1
20260904184003 78 0 0.0 0.0 0.00 0.00 0.00 71 1017.3
20260904183603 78 0 0.0 0.0 0.00 0.00 0.00 70 1017.3
20260904183203 78 0 0.0 0.0 0.00 0.00 0.00 71 1017.2
20260904182803 78 86 0.0 1.0 0.00 0.00 0.00 71 1017.3
20260904182616 78 86 0.0 1.0 0.00 0.00 0.00 72 1017.2
20260904182003 79 85 0.0 1.0 0.00 0.00 0.00 71 1017.1
20260904181603 78 84 0.0 1.0 0.00 0.00 0.00 70 1017.1
20260904181203 79 0 0.0 0.0 0.00 0.00 0.00 71 1017.0
20260904180803 79 0 0.0 0.0 0.00 0.00 0.00 70 1017.0
20260904180403 79 0 0.0 0.0 0.00 0.00 0.00 70 1017.0
20260904180003 80 0 0.0 0.0 0.00 0.00 0.00 70 1016.8
20260904175816 80 0 0.0 0.0 0.00 0.00 0.00 70 1016.9
20260904175203 80 0 0.0 0.0 0.00 0.00 0.00 69 1016.9
20260904174803 80 0 0.0 0.0 0.00 0.00 0.00 68 1016.8
20260904174403 81 0 0.0 0.0 0.00 0.00 0.00 68 1016.9
20260904174003 81 0 0.0 0.0 0.00 0.00 0.00 67 1016.7
20260904173603 82 0 0.0 0.0 0.00 0.00 0.00 66 1016.9
20260904173203 82 85 0.0 2.0 0.00 0.00 0.00 65 1016.8
20260904172803 83 96 0.0 2.0 0.00 0.00 0.00 64 1016.7
20260904172403 83 91 1.0 3.0 0.00 0.00 0.00 63 1016.9
20260904172004 83 92 2.0 4.0 0.00 0.00 0.00 63 1016.9
20260904171815 83 92 2.0 4.0 0.00 0.00 0.00 62 1016.8
20260904171203 84 91 2.0 3.0 0.00 0.00 0.00 61 1016.8
20260904170803 85 96 3.0 8.0 0.00 0.00 0.00 60 1016.8
20260904170403 85 99 3.0 8.0 0.00 0.00 0.00 60 1016.8
20260904170003 85 97 3.0 6.0 0.00 0.00 0.00 59 1016.8
20260904165603 85 93 3.0 6.0 0.00 0.00 0.00 58 1016.9
20260904165203 86 95 3.0 6.0 0.00 0.00 0.00 57 1016.9
20260904165016 86 95 3.0 6.0 0.00 0.00 0.00 57 1016.9
20260904164403 86 95 3.0 7.0 0.00 0.00 0.00 56 1017.0
20260904164003 86 94 3.0 7.0 0.00 0.00 0.00 55 1016.8
20260904163603 87 87 3.0 6.0 0.00 0.00 0.00 54 1017.0
20260904163203 87 91 4.0 9.0 0.00 0.00 0.00 53 1016.8
20260904162803 87 95 4.0 9.0 0.00 0.00 0.00 52 1016.9
20260904162617 87 95 4.0 9.0 0.00 0.00 0.00 52 1017.0
20260904162004 87 94 4.0 9.0 0.00 0.00 0.00 52 1016.9
20260904161603 87 90 4.0 9.0 0.00 0.00 0.00 51 1017.0
20260904161203 88 89 4.0 9.0 0.00 0.00 0.00 51 1016.9
20260904160803 88 85 3.0 8.0 0.00 0.00 0.00 51 1017.1
20260904160403 88 85 3.0 7.0 0.00 0.00 0.00 51 1017.1
20260904160003 88 90 4.0 8.0 0.00 0.00 0.00 52 1017.1
20260904155603 88 83 5.0 10.0 0.00 0.00 0.00 52 1017.1
20260904155203 89 80 5.0 10.0 0.00 0.00 0.00 52 1017.1
20260904154803 89 85 4.0 10.0 0.00 0.00 0.00 53 1017.2
20260904154403 89 86 4.0 9.0 0.00 0.00 0.00 52 1017.2
20260904154003 89 85 5.0 9.0 0.00 0.00 0.00 53 1017.2
20260904153603 89 85 5.0 8.0 0.00 0.00 0.00 53 1017.2
20260904153203 89 80 6.0 11.0 0.00 0.00 0.00 53 1017.2
20260904152803 89 79 6.0 11.0 0.00 0.00 0.00 52 1016.9
20260904152613 89 78 6.0 11.0 0.00 0.00 0.00 52 1017.2
20260904152003 90 88 4.0 7.0 0.00 0.00 0.00 54 1017.3
20260904151603 90 91 5.0 9.0 0.00 0.00 0.00 52 1017.3
20260904151203 90 87 5.0 9.0 0.00 0.00 0.00 53 1017.1
20260904150803 90 89 4.0 9.0 0.00 0.00 0.00 52 1017.2
20260904150403 90 95 4.0 9.0 0.00 0.00 0.00 52 1017.2
20260904150004 90 87 4.0 9.0 0.00 0.00 0.00 51 1017.2
20260904145603 90 72 4.0 9.0 0.00 0.00 0.00 50 1017.4
20260904145203 90 73 6.0 9.0 0.00 0.00 0.00 52 1017.4
20260904144803 89 77 5.0 9.0 0.00 0.00 0.00 53 1017.4
20260904144403 90 76 5.0 11.0 0.00 0.00 0.00 52 1017.4
20260904144216 90 77 5.0 11.0 0.00 0.00 0.00 52 1017.4
20260904143603 89 82 6.0 11.0 0.00 0.00 0.00 52 1017.5
20260904143415 90 84 6.0 9.0 0.00 0.00 0.00 52 1017.5
20260904142803 90 79 6.0 9.0 0.00 0.00 0.00 53 1017.6
20260904142403 90 76 6.0 9.0 0.00 0.00 0.00 53 1017.5
20260904142213 90 75 6.0 9.0 0.00 0.00 0.00 53 1017.7
20260904141603 89 78 6.0 11.0 0.00 0.00 0.00 54 1017.6
20260904141416 89 78 6.0 11.0 0.00 0.00 0.00 53 1017.8
20260904140803 90 76 6.0 13.0 0.00 0.00 0.00 55 1018.0
20260904140403 89 72 6.0 13.0 0.00 0.00 0.00 55 1017.9
20260904140003 89 77 7.0 13.0 0.00 0.00 0.00 56 1018.0
20260904135603 89 79 6.0 10.0 0.00 0.00 0.00 55 1018.1
20260904135413 90 80 6.0 10.0 0.00 0.00 0.00 54 1017.9
20260904134803 89 73 7.0 13.0 0.00 0.00 0.00 56 1018.0
20260904134617 89 73 7.0 13.0 0.00 0.00 0.00 56 1018.0
20260904134003 90 83 6.0 10.0 0.00 0.00 0.00 55 1018.0
20260904133603 90 88 6.0 11.0 0.00 0.00 0.00 56 1018.1
20260904133415 90 85 6.0 11.0 0.00 0.00 0.00 57 1018.1
20260904132803 90 78 6.0 10.0 0.00 0.00 0.00 57 1018.2
20260904132403 91 80 5.0 8.0 0.00 0.00 0.00 56 1018.0
20260904132003 91 71 5.0 9.0 0.00 0.00 0.00 55 1018.1
20260904131603 90 65 6.0 9.0 0.00 0.00 0.00 56 1018.2
20260904131417 91 62 5.0 9.0 0.00 0.00 0.00 55 1018.1
20260904130803 92 58 3.0 8.0 0.00 0.00 0.00 54 1018.1
20260904130403 95 160 2.0 6.0 0.00 0.00 0.00 51 1018.3
20260904130215 95 163 2.0 6.0 0.00 0.00 0.00 43 1018.5
20260904125603 94 90 2.0 6.0 0.00 0.00 0.00 43 1018.4
20260904125203 93 109 2.0 5.0 0.00 0.00 0.00 42 1018.5
20260904124803 93 180 2.0 5.0 0.00 0.00 0.00 41 1018.5
20260904124403 93 233 3.0 8.0 0.00 0.00 0.00 41 1018.4
20260904124003 93 240 3.0 8.0 0.00 0.00 0.00 43 1018.6
20260904123603 93 236 3.0 8.0 0.00 0.00 0.00 42 1018.7
20260904123203 94 212 3.0 7.0 0.00 0.00 0.00 43 1018.6
20260904122804 94 200 2.0 7.0 0.00 0.00 0.00 43 1018.8
20260904122403 94 202 2.0 7.0 0.00 0.00 0.00 43 1018.7
20260904122003 94 194 2.0 7.0 0.00 0.00 0.00 44 1018.6
20260904121603 94 190 2.0 5.0 0.00 0.00 0.00 46 1018.6
20260904121412 93 182 1.0 5.0 0.00 0.00 0.00 44 1018.5